Wind_Speed
9 7 6 5 4 9 12 14 17 16 15 16 16 14 13 12 11 10 10 9 8 7 7 7 7 6 5 5 4 4 4 4 3 3 3 3 3 4 3 2 2 2 3
9 6 5 3 3 7 11 13 16 17 16 15 14 14 12 12 12 11 11 10 9 8 8 8 8 7 6 5 5 4 4 4 3 3 3 4 5 5 4 4 3 3 3
9 6 5 2 2 6 10 12 14 15 16 15 13 13 13 12 13 12 11 10 10 10 9 9 8 8 7 6 5 5 4 3 4 4 4 5 6 6 5 5 4 4 4
8 6 5 1 3 6 10 12 14 15 14 14 13 13 14 14 14 13 12 11 11 10 9 9 9 8 7 7 6 5 4 3 3 4 4 5 5 5 6 6 5 5 5
7 6 5 1 5 7 9 10 13 14 14 15 14 14 15 14 14 13 13 12 12 11 10 9 9 9 8 7 6 5 4 3 2 2 3 3 4 5 5 6 6 6 6
5 4 4 3 5 6 8 9 10 12 14 14 15 15 15 15 14 14 14 14 13 12 11 10 10 9 8 7 6 5 4 2 1 0 1 2 3 4 5 6 6 7 7
4 3 2 2 3 5 6 8 9 11 12 14 14 15 15 16 15 14 14 14 13 13 12 11 11 10 9 8 7 6 5 4 3 3 3 3 4 5 6 7 7 7 8
3 2 2 2 3 4 6 7 9 11 11 12 14 15 15 15 15 14 14 14 14 13 13 12 12 11 10 10 9 8 8 7 7 6 7 7 7 7 8 9 9 9 10
2 2 1 2 2 4 6 7 9 11 11 12 12 13 14 13 14 15 14 15 15 14 14 14 13 13 12 12 12 11 11 10 10 10 10 10 11 11 11 12 12 12 12
1 1 1 1 1 3 5 7 8 10 11 12 12 13 13 13 14 15 15 16 16 16 15 15 15 14 14 14 14 14 14 14 14 14 14 14 14 14 15 15 15 15 15
1 1 0 1 2 3 5 7 8 9 11 12 12 12 13 13 14 15 16 17 17 17 17 17 16 17 17 17 17 17 17 17 17 17 17 18 18 18 18 18 18 18 18
2 1 2 2 2 3 4 7 8 10 11 12 12 12 13 13 14 15 17 18 18 19 19 19 19 19 19 19 20 20 20 20 20 21 21 21 21 21 21 21 21 21 21
3 3 3 3 3 4 4 6 9 10 11 12 13 13 14 14 15 16 17 19 19 20 21 21 22 22 22 22 22 22 23 23 23 24 24 24 24 24 24 24 24 24 24
5 4 5 6 6 6 6 7 9 10 11 12 13 14 15 15 16 17 19 20 21 22 23 23 23 24 24 24 25 25 26 26 27 27 27 27 27 27 27 27 27 27 27
6 6 6 7 8 8 7 7 10 10 12 12 12 14 15 16 17 18 19 21 22 24 25 25 26 26 26 27 27 28 28 29 30 30 30 30 30 30 30 30 30 30 30
8 8 9 9 9 9 10 10 11 11 12 13 14 15 17 18 19 20 21 23 24 24 25 27 28 28 29 30 30 31 31 31 32 33 33 33 33 33 33 32 32 32 32
11 11 11 11 11 12 13 13 14 14 14 15 16 18 19 20 21 22 22 23 26 27 27 28 29 30 32 33 34 33 33 34 34 34 34 35 35 35 35 35 35 34 34
13 13 14 14 14 14 15 16 17 17 17 18 19 20 22 23 24 24 24 26 27 29 29 30 31 32 32 33 34 35 35 35 35 36 36 37 37 38 38 37 37 37 37
14 14 15 16 16 16 17 18 19 20 21 22 22 22 24 25 26 26 26 27 28 29 30 31 31 32 34 35 36 36 37 37 37 38 38 39 38 39 40 39 39 39 40
15 16 16 18 19 20 20 21 22 23 23 24 25 26 26 28 28 28 29 30 30 31 32 33 34 34 35 36 36 37 36 36 37 37 38 38 39 40 41 41 41 41 42
17 18 18 19 20 21 22 22 24 25 26 27 28 29 30 30 31 32 33 33 33 34 34 34 36 36 37 38 38 38 38 37 38 38 39 39 40 41 43 43 44 44 45
18 19 20 21 21 22 23 24 25 27 28 29 29 30 31 31 32 34 33 32 33 33 34 35 35 35 36 37 38 38 38 39 39 39 40 41 42 44 45 45 46 47 47
19 20 21 21 23 24 25 26 27 28 29 30 31 31 32 32 33 32 33 33 34 34 35 35 35 35 36 37 38 39 40 41 41 41 42 44 45 46 47 48 48 48 49
19 20 21 22 23 24 25 27 28 29 30 31 31 32 32 33 34 34 35 35 35 35 36 36 36 37 38 38 39 39 40 41 42 43 44 45 46 47 47 48 50 51 52
19 20 21 23 24 25 27 28 29 30 31 32 33 34 34 35 35 36 36 36 37 38 38 38 39 39 40 40 41 42 43 44 45 46 47 48 48 49 50 51 52 53 54
20 21 22 24 25 26 28 29 30 31 32 33 34 34 34 35 36 36 37 38 38 38 38 39 41 41 42 43 44 45 45 46 47 48 49 49 50 51 52 53 54 55 56
Wind_Direction
336 323 316 291 251 215 205 201 196 199 204 205 207 210 212 212 208 205 197 196 198 193 189 181 173 165 158 152 145 132 118 102 80 60 45 39 38 27 13 359 337 325 322
343 333 331 295 254 209 200 199 201 202 202 202 200 201 201 196 196 191 187 189 190 184 178 173 170 166 162 157 150 139 124 107 88 71 57 48 47 42 33 22 5 350 344
339 337 342 328 210 186 189 188 192 192 194 193 190 189 190 189 188 187 185 189 187 181 176 175 174 173 170 163 155 145 129 111 91 74 65 59 50 46 40 31 20 5 355
347 348 346 333 173 177 185 186 188 188 188 189 188 186 188 188 190 188 188 187 185 183 181 178 177 177 175 168 162 152 134 117 99 82 69 60 52 45 37 31 22 15 7
359 8 9 81 149 160 171 177 181 186 188 189 190 189 189 189 190 191 191 189 188 189 187 185 184 182 179 176 173 168 157 136 108 81 59 46 37 30 26 23 17 9 3
13 29 45 104 132 149 159 166 172 181 187 191 192 191 190 190 190 192 194 195 196 195 193 193 191 188 188 189 191 192 194 195 201 318 356 5 2 0 359 0 360 357 355
31 48 66 110 139 149 162 171 175 179 183 186 188 190 191 192 194 197 199 201 202 201 200 200 199 199 202 208 213 219 227 240 260 281 297 312 323 329 335 339 340 339 337
48 64 73 132 155 169 175 180 182 182 185 191 194 194 195 197 200 202 204 206 206 206 206 206 208 211 215 222 229 237 244 254 267 280 288 294 302 308 314 318 321 320 319
51 64 85 118 160 185 187 184 185 188 189 192 194 198 201 203 204 206 208 210 211 212 212 214 218 221 226 231 238 245 252 260 270 279 284 287 293 298 302 305 307 308 306
43 63 83 131 185 196 201 199 194 195 196 197 200 204 207 210 212 212 213 215 217 218 219 222 228 232 236 241 245 250 256 263 270 276 281 285 289 293 295 298 299 299 298
342 269 237 218 202 200 206 205 203 205 205 204 207 212 214 217 220 220 220 221 223 225 227 230 235 240 245 248 251 255 260 264 269 274 278 282 285 287 290 293 294 294 293
332 311 269 251 234 211 208 212 216 216 218 217 219 221 221 227 227 225 226 227 229 231 234 237 241 245 250 253 256 258 262 266 269 273 277 279 282 284 286 288 289 289 288
287 305 289 283 264 246 237 228 229 230 232 230 229 230 234 235 232 233 234 234 236 238 240 243 247 250 253 256 259 262 264 267 270 273 275 277 279 281 284 285 285 285 284
272 276 273 271 267 263 251 241 239 239 240 235 234 238 240 238 238 239 240 242 242 243 245 248 251 253 256 259 261 264 266 268 270 272 274 276 278 279 281 283 283 283 282
259 261 259 262 265 265 261 266 252 250 246 242 244 244 245 246 247 247 246 246 249 249 250 251 254 256 257 260 262 264 266 268 270 271 272 274 276 277 278 279 281 281 280
260 258 256 254 258 261 263 267 267 265 258 253 253 253 254 255 256 254 254 253 252 253 254 255 256 258 261 262 263 265 266 268 269 270 272 273 274 275 276 277 278 279 279
259 256 257 257 257 259 261 262 264 266 265 264 265 264 264 265 262 261 262 261 258 257 261 261 261 262 265 265 265 267 270 269 268 270 273 273 274 274 275 276 277 278 278
261 258 257 258 261 262 261 265 266 264 263 263 266 265 264 265 264 262 262 263 262 262 263 264 264 264 268 269 270 272 274 272 273 272 272 272 273 275 275 276 277 278 278
262 257 257 260 263 265 265 266 267 267 267 267 267 269 269 268 269 267 268 269 268 267 268 268 269 270 270 272 273 274 276 274 273 273 272 272 273 274 275 276 276 277 276
262 262 262 263 265 266 267 267 268 270 272 274 272 274 274 274 274 272 273 272 271 271 271 270 272 273 273 273 273 274 274 274 274 273 273 273 272 273 275 276 276 276 275
262 263 263 264 266 268 269 269 271 271 273 274 276 276 277 279 277 276 275 274 274 274 275 274 274 274 275 274 274 274 273 274 274 274 274 274 275 275 276 276 277 277 276
264 264 267 268 268 269 271 272 273 273 272 274 277 278 280 280 281 281 279 276 278 279 280 279 278 277 277 277 276 274 273 273 274 274 274 274 276 277 277 277 277 277 277
266 267 269 270 271 272 273 273 274 275 276 277 278 280 281 281 283 284 283 281 280 282 283 281 280 280 279 279 279 277 276 276 275 275 276 276 276 276 276 276 276 277 277
265 267 269 272 274 275 275 276 277 278 279 279 280 282 282 283 283 283 283 282 282 283 282 281 280 279 279 279 280 278 277 277 277 277 277 277 277 276 276 276 277 278 278
267 269 270 272 274 275 276 277 278 279 279 280 281 281 281 283 284 282 282 282 283 283 281 281 281 281 280 279 279 278 278 278 279 279 279 279 278 277 278 279 279 279 279
270 271 273 275 276 277 279 280 280 281 281 281 282 282 282 282 282 283 283 283 283 283 282 281 280 280 280 280 280 280 280 280 280 279 279 279 278 279 279 280 280 280 280
Height
5843 5840 5838 5837 5836 5837 5840 5843 5846 5851 5855 5859 5863 5866 5868 5870 5872 5874 5876 5877 5878 5879 5880 5881 5881 5882 5882 5882 5883 5883 5882 5882 5881 5881 5880 5879 5879 5878 5877 5877 5877 5876 5876
5842 5839 5837 5836 5835 5835 5838 5842 5846 5850 5854 5858 5861 5864 5866 5868 5870 5872 5874 5876 5877 5878 5879 5880 5880 5881 5882 5882 5882 5882 5882 5882 5882 5881 5880 5879 5879 5878 5877 5877 5876 5876 5875
5841 5838 5836 5835 5834 5835 5838 5841 5845 5848 5852 5856 5859 5861 5864 5866 5869 5871 5873 5874 5876 5877 5878 5879 5879 5880 5881 5881 5882 5882 5882 5882 5882 5881 5881 5880 5879 5878 5878 5877 5876 5875 5875
5839 5837 5835 5834 5834 5835 5837 5840 5844 5848 5851 5854 5857 5859 5862 5864 5867 5869 5871 5873 5874 5876 5877 5877 5878 5879 5880 5881 5881 5881 5881 5881 5881 5881 5880 5880 5879 5878 5877 5877 5876 5875 5874
5838 5836 5834 5834 5834 5835 5837 5840 5843 5846 5849 5852 5855 5858 5860 5862 5865 5868 5870 5872 5873 5874 5875 5876 5877 5878 5879 5879 5880 5880 5881 5881 5881 5880 5880 5879 5879 5878 5877 5876 5875 5874 5873
5838 5836 5835 5836 5836 5836 5838 5840 5842 5845 5848 5850 5853 5856 5858 5861 5863 5866 5868 5870 5871 5872 5874 5875 5876 5877 5877 5878 5879 5879 5879 5879 5879 5879 5879 5878 5878 5877 5876 5875 5874 5873 5872
5838 5837 5836 5837 5837 5837 5839 5840 5842 5844 5846 5849 5852 5854 5856 5859 5861 5863 5866 5867 5869 5870 5872 5873 5874 5875 5876 5876 5877 5877 5878 5878 5878 5878 5877 5877 5876 5875 5874 5873 5872 5871 5870
5837 5837 5837 5836 5837 5838 5839 5840 5842 5844 5846 5848 5850 5852 5855 5857 5859 5861 5863 5865 5866 5868 5869 5871 5872 5872 5873 5874 5875 5875 5875 5875 5875 5875 5874 5874 5873 5873 5872 5871 5870 5869 5868
5837 5837 5837 5837 5837 5838 5839 5840 5841 5843 5845 5847 5849 5851 5853 5855 5857 5859 5860 5862 5864 5865 5867 5868 5869 5870 5871 5871 5872 5872 5872 5872 5872 5872 5871 5871 5870 5869 5869 5868 5867 5866 5864
5836 5836 5836 5836 5837 5837 5838 5839 5841 5842 5844 5846 5847 5849 5851 5853 5855 5856 5858 5859 5860 5862 5863 5864 5865 5866 5867 5868 5868 5868 5868 5869 5868 5868 5868 5867 5866 5865 5864 5863 5862 5861 5860
5836 5835 5835 5836 5836 5836 5836 5838 5839 5840 5842 5843 5845 5847 5848 5850 5851 5853 5855 5856 5857 5858 5859 5860 5861 5862 5863 5863 5864 5864 5864 5864 5863 5863 5862 5862 5861 5860 5859 5858 5857 5856 5855
5834 5833 5833 5834 5835 5835 5835 5836 5837 5838 5840 5841 5842 5844 5845 5847 5848 5850 5851 5852 5853 5854 5855 5856 5857 5858 5858 5858 5858 5858 5858 5858 5858 5858 5857 5856 5855 5854 5853 5852 5851 5849 5848
5832 5832 5832 5832 5833 5833 5834 5834 5835 5836 5837 5838 5839 5841 5842 5843 5845 5846 5847 5848 5849 5850 5851 5852 5852 5852 5853 5853 5853 5853 5852 5852 5852 5851 5850 5849 5848 5847 5846 5845 5844 5842 5841
5829 5830 5830 5830 5830 5831 5831 5832 5833 5833 5833 5834 5836 5837 5838 5839 5840 5841 5842 5843 5844 5845 5845 5846 5846 5846 5846 5846 5846 5846 5845 5845 5844 5843 5843 5842 5841 5839 5838 5837 5836 5834 5833
5827 5827 5828 5828 5828 5828 5828 5829 5830 5830 5831 5831 5832 5834 5834 5835 5836 5836 5837 5837 5838 5839 5839 5839 5839 5839 5839 5838 5838 5837 5837 5836 5835 5834 5834 5833 5832 5830 5829 5828 5827 5826 5824
5823 5824 5824 5825 5825 5825 5826 5826 5826 5827 5828 5828 5829 5830 5830 5830 5830 5830 5830 5831 5831 5831 5832 5832 5831 5831 5831 5830 5829 5828 5828 5827 5826 5825 5824 5823 5822 5821 5820 5819 5817 5816 5815
5819 5820 5820 5821 5822 5822 5823 5823 5823 5824 5824 5824 5825 5825 5824 5824 5824 5824 5824 5824 5823 5823 5823 5823 5823 5823 5822 5821 5820 5819 5818 5817 5817 5816 5814 5813 5812 5811 5810 5808 5807 5806 5804
5814 5815 5816 5817 5818 5818 5818 5818 5819 5819 5819 5819 5819 5818 5818 5818 5817 5817 5817 5816 5814 5814 5814 5813 5814 5813 5812 5811 5810 5809 5808 5807 5806 5805 5804 5802 5801 5800 5799 5797 5797 5795 5793
5809 5809 5811 5812 5812 5812 5813 5812 5812 5812 5812 5811 5811 5810 5810 5809 5808 5808 5808 5806 5805 5805 5805 5804 5803 5803 5802 5801 5800 5799 5798 5797 5796 5794 5792 5791 5790 5788 5787 5786 5785 5783 5781
5804 5804 5805 5806 5806 5806 5806 5805 5805 5805 5805 5804 5803 5802 5802 5801 5799 5799 5798 5797 5796 5795 5795 5794 5794 5793 5791 5790 5789 5787 5786 5785 5784 5782 5781 5779 5778 5776 5774 5773 5772 5771 5769
5798 5799 5799 5800 5799 5799 5798 5798 5798 5798 5797 5796 5796 5795 5794 5792 5791 5790 5788 5786 5786 5785 5784 5783 5782 5782 5780 5778 5777 5776 5774 5773 5772 5770 5769 5767 5765 5764 5761 5759 5758 5756 5755
5792 5793 5793 5793 5793 5793 5792 5792 5791 5790 5789 5788 5787 5786 5785 5783 5782 5780 5777 5776 5776 5775 5773 5772 5771 5770 5769 5767 5766 5764 5762 5761 5759 5758 5756 5754 5752 5750 5748 5746 5744 5742 5740
5786 5786 5786 5786 5786 5786 5785 5784 5784 5782 5781 5780 5778 5777 5776 5775 5773 5770 5768 5766 5765 5764 5763 5761 5760 5758 5757 5755 5754 5752 5750 5748 5747 5745 5743 5741 5739 5736 5734 5732 5729 5727 5725
5780 5780 5780 5779 5779 5778 5777 5776 5775 5774 5773 5771 5770 5768 5767 5765 5763 5761 5759 5757 5755 5753 5752 5750 5749 5747 5746 5744 5742 5740 5738 5736 5734 5732 5729 5727 5724 5721 5719 5716 5714 5711 5708
5773 5773 5773 5772 5772 5771 5770 5768 5767 5765 5764 5762 5760 5758 5757 5755 5753 5751 5749 5747 5745 5743 5742 5740 5738 5736 5734 5732 5730 5727 5725 5723 5720 5717 5715 5712 5709 5706 5703 5701 5698 5695 5691
5767 5766 5765 5765 5764 5763 5761 5760 5758 5756 5754 5752 5750 5748 5746 5744 5742 5740 5738 5736 5734 5732 5729 5727 5725 5723 5721 5718 5716 5713 5711 5708 5706 5703 5700 5697 5693 5690 5687 5684 5681 5677 5673